Location: Asni�res
(49.1337°N, 2.3555°E)
Time: 04:01:57
(UTC+00:00)

H-2A R/B - Pass Details

Date: 16 October 2021
Orbit: 577 x 654 km, 98.5° (Epoch: 29 November)

Event Time Altitude Azimuth Distance (km) Brightness Sun altitude
Rises 18:12:58 0° 22° (NNE) 2,806 5.2 -12.9°
Reaches altitude 10° 18:15:19 10° 33° (NNE) 1,902 4.3 -13.3°
Maximum altitude 18:19:01 32° 97° (E) 1,010 2.6 -13.9°
Drops below altitude 10° 18:22:43 10° 162° (SSE) 1,902 4.4 -14.5°
Sets 18:25:03 0° 172° (S) 2,805 5.3 -14.9°
